Location: Northcutt
(34.7304°N, 84.4305°W)
Time: 04:13:20
(UTC+00:00)

Vanguard 2 - Pass Details

Date: 07 October 2022
Orbit: 553 x 2933 km, 32.9° (Epoch: 05 December)

Event Time Altitude Azimuth Distance (km) Brightness Sun altitude
Rises 17:56:04 0° 253° (WSW) 4,136 11.5 48.9°
Reaches altitude 10° 17:58:25 10° 252° (WSW) 3,418 11.3 48.8°
Maximum altitude 18:07:34 77° 168° (SSE) 1,968 10.8 48.4°
Drops below altitude 10° 18:22:47 10° 86° (E) 5,403 11.8 47.4°
Sets 18:27:32 0° 85° (E) 6,616 12.1 47.0°
